Terug naar catalogus

STARLINK-4492

ActiefCommunicatieVLEO
NORAD 53410·PAYLOAD·🇺🇸 United States

Gelanceerd Aug 10, 2022 vanaf Cape Canaveral Space Force Station

Loading…

Volgende Passages (komende 24 uur)

TLE

VersSource: CelesTrak SupGP

Epoch: Sep 15, 2026, 02:06 UTC

1 53410C 22097Y   26258.08798611  .00237190  00000+0  10947-1 0  2587
2 53410  53.1589 342.4628 0001266  94.4853 300.1785 15.19590308    19

Volg STARLINK-4492 in realtime met AllMySat

Download on the App Store